{"data":{"norad_id":52583,"epoch":"2026-09-20T04:32:55.105152Z","epoch_age_seconds":90081,"freshness":"FRESH","line1":"1 52583U 22051AZ  26263.18952668 -.00000838  00000+0 -13133-4 0  9992","line2":"2 52583  53.1618 318.0156 0001113  87.0408 273.0722 15.35392678241050","mean_motion":15.35392678,"eccentricity":0.0001113,"inclination_deg":53.1618,"raan_deg":318.0156,"arg_perigee_deg":87.0408,"mean_anomaly_deg":273.0722,"bstar":-1.3133e-5,"rev_number":24105,"period_min":93.787082655347,"perigee_km":458.99332442578,"apogee_km":460.51543904736,"semimajor_km":6837.8913817366,"source":"CELESTRAK","updated_at":"2026-09-20T09:00:40.066073Z"}}